Easton, MD

7:46 AM EDT on September 26, 2017 (GMT -0400)
Easton / Newnam

Weather History for KESN - May, 2014

Change the Weather History Date:

Monday, May 12, 2014

  Actual Average Record
Temperature  
Mean Temperature 74 °F -  
Max Temperature 86 °F 75 °F 92 °F (1959)
Min Temperature 61 °F 52 °F 36 °F (1962)
Cooling Degree Days 8    
Growing Degree Days 24 (Base 50)    
Moisture  
Dew Point 63 °F    
Average Humidity 82    
Maximum Humidity 100    
Minimum Humidity 51    
Precipitation  
Precipitation 0.00 in - - ()
Sea Level Pressure  
Sea Level Pressure 30.15 in    
Wind  
Wind Speed 2 mph (SW)    
Max Wind Speed 15 mph    
Max Gust Speed 20 mph    
Visibility 10 miles    
Events Rain    
Averages and records for this station are not official NWS values.
T = Trace of Precipitation, MM = Missing Value Source: NWS Daily Summary

Daily Weather History Graph

Daily Weather History Graph

Search for Another Location

Airport or City:

Trip Planner

Search our weather history database for the weather conditions in past years. The results will help you decide how hot, cold, wet, or windy it might be!

Date:

Astronomy

May. 12, 2014 Rise Set
Actual Time 5:54 AM EDT 8:07 PM EDT
Civil Twilight 5:25 AM EDT 8:36 PM EDT
Nautical Twilight 4:48 AM EDT 9:13 PM EDT
Astronomical Twilight 4:09 AM EDT 9:53 PM EDT
Moon 6:03 PM EDT (5/12) 4:30 AM EDT (5/12)
Length of Visible Light 15h 11m
Length of Day
14h 12m
Waxing Gibbous, 95% of the Moon is Illuminated
May 12
Waxing Gibbous
May 14
Full
May 21
Last Quarter
May 28
New
Jun 5
First Quarter

Hourly Weather History & Observations

Time (EDT) Temp. Heat Index Dew Point Humidity Pressure Visibility Wind Dir Wind Speed Gust Speed Precip Events Conditions
12:15 AM 64.6 °F - 55.9 °F 74% 30.17 in 10.0 mi Calm Calm - N/A   Clear
12:35 AM 64.0 °F - 56.5 °F 76% 30.17 in 10.0 mi Calm Calm - N/A   Clear
12:55 AM 63.5 °F - 56.8 °F 79% 30.17 in 10.0 mi Calm Calm - N/A   Clear
1:15 AM 63.1 °F - 57.4 °F 81% 30.17 in 10.0 mi Calm Calm - N/A   Clear
1:35 AM 62.2 °F - 57.4 °F 84% 30.17 in 10.0 mi Calm Calm - N/A   Clear
1:55 AM 62.6 °F - 59.0 °F 88% 30.16 in 10.0 mi Calm Calm - N/A   Clear
2:15 AM 62.4 °F - 58.3 °F 86% 30.16 in 10.0 mi Calm Calm - N/A   Clear
2:35 AM 63.1 °F - 58.3 °F 84% 30.16 in 10.0 mi Calm Calm - N/A   Clear
2:55 AM 62.8 °F - 58.5 °F 86% 30.16 in 10.0 mi Calm Calm - N/A   Clear
3:15 AM 63.0 °F - 59.0 °F 87% 30.15 in 10.0 mi Calm Calm - N/A   Clear
3:35 AM 63.0 °F - 59.0 °F 87% 30.15 in 10.0 mi Calm Calm - N/A   Clear
3:56 AM 62.4 °F - 59.9 °F 91% 30.15 in 10.0 mi Calm Calm - N/A   Clear
4:16 AM 61.9 °F - 61.9 °F 100% 30.14 in 10.0 mi Calm Calm - N/A   Clear
4:36 AM 62.1 °F - 59.7 °F 92% 30.15 in 10.0 mi SSW 3.5 mph - N/A   Clear
4:56 AM 62.6 °F - 60.4 °F 93% 30.15 in 10.0 mi SW 3.5 mph - N/A   Clear
5:16 AM 62.2 °F - 60.8 °F 95% 30.15 in 10.0 mi Calm Calm - N/A   Clear
5:36 AM 61.7 °F - 61.7 °F 100% 30.15 in 10.0 mi Calm Calm - N/A   Clear
5:45 AM 62.6 °F - 62.6 °F 100% 30.15 in 10.0 mi Calm Calm - N/A   Clear
5:56 AM 61.9 °F - 61.9 °F 100% 30.15 in 10.0 mi Calm Calm - N/A   Clear
6:16 AM 62.2 °F - 62.2 °F 100% 30.16 in 10.0 mi Calm Calm - N/A   Clear
6:24 AM 62.6 °F - 62.6 °F 100% 30.16 in 10.0 mi Calm Calm - N/A   Clear
6:50 AM 62.6 °F - 62.6 °F 100% 30.17 in 10.0 mi Calm Calm - N/A   Clear
7:46 AM 68.0 °F - 62.6 °F 83% 30.18 in 10.0 mi SSW 6.9 mph - N/A   Clear
8:46 AM 73.4 °F - 64.4 °F 73% 30.18 in 10.0 mi SW 6.9 mph - N/A   Clear
9:50 AM 77.0 °F - 64.4 °F 65% 30.17 in 10.0 mi SSW 6.9 mph - N/A   Clear
10:47 AM 80.6 °F 82.7 °F 66.2 °F 61% 30.17 in 10.0 mi SW 9.2 mph - N/A   Clear
11:48 AM 82.4 °F 83.9 °F 64.4 °F 54% 30.17 in 10.0 mi SSW 12.7 mph 17.3 mph N/A   Clear
12:50 PM 84.2 °F 85.6 °F 64.4 °F 51% 30.16 in 10.0 mi WSW 10.4 mph 19.6 mph N/A   Clear
1:50 PM 86.0 °F 88.2 °F 66.2 °F 51% 30.14 in 10.0 mi SW 10.4 mph - N/A   Scattered Clouds
2:53 PM 86.0 °F 88.2 °F 66.2 °F 51% 30.13 in 10.0 mi SSW 10.4 mph - N/A   Mostly Cloudy
3:53 PM 86.0 °F 89.4 °F 68.0 °F 55% 30.11 in 10.0 mi SW 11.5 mph 19.6 mph N/A   Mostly Cloudy
4:50 PM 86.0 °F 88.2 °F 66.2 °F 51% 30.10 in 10.0 mi SW 15.0 mph 19.6 mph N/A   Scattered Clouds
5:53 PM 86.0 °F 88.2 °F 66.2 °F 51% 30.09 in 10.0 mi SSW 13.8 mph 19.6 mph N/A   Scattered Clouds
6:53 PM 84.2 °F 85.6 °F 64.4 °F 51% 30.09 in 10.0 mi SSW 9.2 mph 19.6 mph N/A   Scattered Clouds
8:20 PM 77.0 °F - 68.0 °F 74% 30.12 in 7.0 mi WNW 8.1 mph - N/A Rain Light Rain
8:53 PM 73.4 °F - 73.4 °F 100% 30.12 in 7.0 mi Calm Calm - N/A   Overcast
9:15 PM 71.6 °F - 71.6 °F 100% 30.14 in 7.0 mi Calm Calm - N/A Rain Light Rain
10:38 PM 71.1 °F - 71.1 °F 100% 30.13 in 10.0 mi Calm Calm - N/A   Clear
10:58 PM 71.2 °F - 71.2 °F 100% 30.13 in 10.0 mi Calm Calm - N/A   Clear
11:18 PM 70.5 °F - 70.5 °F 100% 30.13 in 4.0 mi Calm Calm - N/A   Clear
11:38 PM 69.6 °F - 69.6 °F 100% 30.12 in 3.0 mi Calm Calm - N/A   Clear
11:58 PM 70.0 °F - 70.0 °F 100% 30.11 in 10.0 mi Calm Calm - N/A   Clear